TimeAKST,TemperatureF,Dew PointF,Humidity,Sea Level PressureIn,VisibilityMPH,Wind Direction,Wind SpeedMPH,Gust SpeedMPH,PrecipitationIn,Events,Conditions,WindDirDegrees,DateUTC
12:03 AM,17.6,14.0,86,29.66,3.0,East,6.9,-,0.00,Snow,Light Snow,90,2012-11-11 09:03:00
12:53 AM,18.0,14.0,84,29.76,3.0,East,6.9,-,0.01,Snow,Light Snow,100,2012-11-11 09:53:00
1:06 AM,17.6,15.8,93,29.66,2.5,East,6.9,-,0.00,Snow,Light Snow,100,2012-11-11 10:06:00
1:53 AM,18.0,15.1,88,29.77,3.0,East,5.8,-,0.00,Snow,Light Snow,100,2012-11-11 10:53:00
2:01 AM,17.6,15.8,93,29.66,2.5,East,6.9,-,0.01,Snow,Light Snow,90,2012-11-11 11:01:00
2:53 AM,18.0,15.1,88,29.77,2.5,East,6.9,-,0.01,Snow,Light Snow,100,2012-11-11 11:53:00
3:12 AM,17.6,15.8,93,29.67,2.5,East,5.8,-,0.01,Snow,Light Snow,80,2012-11-11 12:12:00
3:53 AM,18.0,15.1,88,29.78,2.0,East,5.8,-,0.02,Snow,Light Snow,80,2012-11-11 12:53:00
4:01 AM,17.6,15.8,93,29.67,1.8,East,5.8,-,0.00,Snow,Light Snow,80,2012-11-11 13:01:00
4:08 AM,17.6,15.8,93,29.67,2.0,East,5.8,-,0.00,Snow,Light Snow,80,2012-11-11 13:08:00
4:19 AM,17.6,15.8,93,29.67,1.8,East,5.8,-,0.00,Snow,Light Snow,90,2012-11-11 13:19:00
4:29 AM,17.6,15.8,93,29.67,2.5,East,5.8,-,0.00,Snow,Light Snow,90,2012-11-11 13:29:00
4:46 AM,17.6,15.8,93,29.67,3.0,East,5.8,-,0.01,Snow,Light Snow,80,2012-11-11 13:46:00
4:53 AM,18.0,15.1,88,29.78,4.0,East,5.8,-,0.01,Snow,Light Snow,90,2012-11-11 13:53:00
5:53 AM,18.0,15.1,88,29.78,9.0,East,4.6,-,0.00,Snow,Light Snow,90,2012-11-11 14:53:00
6:53 AM,18.0,16.0,92,29.79,6.0,ENE,3.5,-,0.00,Snow,Light Snow,70,2012-11-11 15:53:00
7:53 AM,18.0,16.0,92,29.81,6.0,ENE,3.5,-,0.01,Snow,Light Snow,70,2012-11-11 16:53:00
8:53 AM,18.0,15.1,88,29.82,6.0,East,5.8,-,0.00,Snow,Light Snow,90,2012-11-11 17:53:00
9:53 AM,18.0,15.1,88,29.83,3.0,East,4.6,-,0.00,Snow,Light Snow,90,2012-11-11 18:53:00
10:53 AM,18.0,15.1,88,29.86,4.0,ENE,4.6,-,0.01,Snow,Light Snow,70,2012-11-11 19:53:00
11:53 AM,19.0,15.1,85,29.86,10.0,East,3.5,-,0.00,Snow,Light Snow,90,2012-11-11 20:53:00
12:53 PM,19.0,16.0,88,29.88,9.0,ESE,3.5,-,0.00,Snow,Light Snow,120,2012-11-11 21:53:00
1:53 PM,19.0,15.1,85,29.89,9.0,Calm,Calm,-,0.00,Snow,Light Snow,0,2012-11-11 22:53:00
2:53 PM,19.9,16.0,85,29.91,10.0,Calm,Calm,-,0.00,Snow,Light Snow,0,2012-11-11 23:53:00
3:24 PM,19.4,15.8,86,29.81,9.0,Calm,Calm,-,0.00,Snow,Light Snow,0,2012-11-12 00:24:00
3:53 PM,19.0,16.0,88,29.91,8.0,Calm,Calm,-,0.00,,Overcast,0,2012-11-12 00:53:00
4:33 PM,19.4,15.8,86,29.82,10.0,Calm,Calm,-,N/A,,Overcast,0,2012-11-12 01:33:00
4:53 PM,18.0,16.0,92,29.94,10.0,Calm,Calm,-,N/A,,Overcast,0,2012-11-12 01:53:00
5:53 PM,18.0,16.0,92,29.95,10.0,Calm,Calm,-,N/A,,Overcast,0,2012-11-12 02:53:00
6:53 PM,17.1,16.0,96,29.96,10.0,Calm,Calm,-,0.00,Snow,Light Snow,0,2012-11-12 03:53:00
7:53 PM,16.0,14.0,92,29.98,10.0,NNW,4.6,-,0.00,,Overcast,330,2012-11-12 04:53:00
8:53 PM,16.0,12.9,88,30.00,10.0,NNW,3.5,-,N/A,,Overcast,330,2012-11-12 05:53:00
9:53 PM,15.1,12.9,91,30.02,10.0,NNW,3.5,-,N/A,,Overcast,340,2012-11-12 06:53:00
10:53 PM,15.1,12.0,88,30.03,10.0,Calm,Calm,-,N/A,,Overcast,0,2012-11-12 07:53:00
11:53 PM,14.0,12.0,92,30.04,10.0,Calm,Calm,-,N/A,,Overcast,0,2012-11-12 08:53:00